Location: Christchurch
(43.5330°S, 172.6330°E)
Time: 05:58:29
(UTC+12:00)

Cosmos 1844 Rocket - Pass Details

Date: 24 January 2019
Orbit: 826 x 843 km, 71.0° (Epoch: 21 April)

Event Time Altitude Azimuth Distance (km) Brightness Sun altitude
Rises 22:51:10 0° 201° (SSW) 3,413 7.2 -16.1°
Reaches altitude 10° 22:53:44 10° 195° (SSW) 2,476 6.1 -16.4°
Maximum altitude 22:59:12 46° 121° (ESE) 1,121 3.2 -17.0°
Enters shadow 23:02:01 26° 63° (ENE) 1,598 3.6 -17.4°
